Regional Weather Roundup
Issued by NWS

Home | Current Version | Previous Version | Text Only | Print | Product List | Glossary On
Versions: 1 2 3 4 5 6 7 8 9 10 11 12 13 14 15 16 17 18 19 20 21 22 23 24 25 26 27 28 29 30 31 32 33 34 35 36 37 38 39 40 41 42 43 44 45 46 47 48 49 50
000
ASUS46 KSTO 172004
RWRCA

NORTHERN AND CENTRAL CA REGIONAL WEATHER ROUNDUP
NATIONAL WEATHER SERVICE SACRAMENTO CA
100 PM PDT WED SEP 17 2014

NOTE: FAIR INDICATES FEW OR NO CLOUDS BELOW 12,000 FEET WITH NO
SIGNIFICANT WEATHER AND/OR OBSTRUCTIONS TO VISIBILITY.

CAZ001-003-172100-
NORTHWEST AREA

CITY           SKY/WX    TMP DP  RH WIND       PRES   REMARKS
CRESCENT CITY  CLOUDY    60  57  89 SE5       29.80S
UKIAH          SUNNY     78  49  35 SE13G21   29.77F
$$

CAZ006-505>513-172100-
BAY AREA

CITY           SKY/WX    TMP DP  RH WIND       PRES   REMARKS
SANTA ROSA     MOSUNNY   76  54  46 VRB3      29.78F
SAN RAFAEL     N/A       69  MM  MM MISG
NAPA           SUNNY     75  55  49 S8        29.79F
CONCORD        SUNNY     80  55  42 NW10      29.77F
OAKLAND CITY   N/A       70  MM  MM MISG
OAKLAND        MOSUNNY   75  55  49 W7        29.80F
SAN FRAN CITY  N/A       72  MM  54 MISG
SAN FRAN ARPT  MOSUNNY   72  61  68 NE7       29.80F
LIVERMORE      SUNNY     86  51  29 W9        29.77F
HAYWARD        SUNNY     77  57  50 W6        29.80F
REDWOOD CITY   N/A       MM  MM  MM MISG
MOFFETT ARPT   SUNNY     77  58  51 N7        29.79F
SAN JOSE ARPT  SUNNY     80  57  45 NW7       29.78F
$$
CAZ034-037-514>518-172100-
CENTRAL COAST

CITY           SKY/WX    TMP DP  RH WIND       PRES   REMARKS
WATSONVILLE    SUNNY     75  58  55 SE8       29.83F
SALINAS        SUNNY     70  56  61 NW9       29.82F
MONTEREY       MOSUNNY   66  57  72 NW6       29.84F
SAN LUIS OBISP SUNNY     80  51  36 NW12      29.83F
SANTA MARIA    SUNNY     76  58  53 NW12      29.85F
$$
CAZ015-016-172100-
NORTHERN SACRAMENTO VALLEY

CITY           SKY/WX    TMP DP  RH WIND       PRES   REMARKS
REDDING        SUNNY     87  41  19 S16G23    29.72F
RED BLUFF      SUNNY     88  39  17 S18G24    29.73F
OROVILLE       SUNNY     91  38  15 S15       29.77F
$$
CAZ016>018-172100-
SOUTHERN SACRAMENTO VALLEY

CITY           SKY/WX    TMP DP  RH WIND       PRES   REMARKS
AUBURN         SUNNY     84  41  21 SW7       29.83F
BEALE AFB      SUNNY     88  42  19 SW8       29.76F
LINCOLN        FAIR      88  34  14 SW5       29.76F
MARYSVILLE     SUNNY     88  40  18 MISG      29.76F
SAC INTL ARPT  MOSUNNY   86  43  22 SW12      29.76F
MATHER AIRPORT MOSUNNY   84  46  26 W6        29.77F
DOWNTOWN SAC   N/A       84  MM  MM MISG
SAC EXEC ARPT  SUNNY     83  52  34 S6        29.77F
VACAVILLE      SUNNY     85  44  23 S10G22    29.78F
TRAVIS AFB     SUNNY     81  51  35 SW16      29.76F
$$
CAZ019>021-172100-
SAN JOAQUIN VALLEY

CITY           SKY/WX    TMP DP  RH WIND       PRES   REMARKS
STOCKTON       SUNNY     85  54  34 CALM      29.76F
MODESTO        SUNNY     85  53  33 NW6       29.75F
MERCED         SUNNY     90  41  18 W6        29.75F
LEMOORE        SUNNY     91  52  26 VRB3      29.76F
FRESNO         MOSUNNY   94  48  20 CALM      29.76F HX  90
HANFORD        MOSUNNY   93  50  23 VRB6      29.76F HX  90
PORTERVILLE    SUNNY     91  55  29 NW7       29.78F
BAKERSFIELD    SUNNY     94  53  25 NW8       29.76F HX  91
$$
CAZ011-012-071-172100-
NORTHERN MOUNTAINS

CITY           SKY/WX    TMP DP  RH WIND       PRES   REMARKS
YREKA          MOSUNNY   84  32  15 S28G40    29.76F
MOUNT SHASTA   SUNNY     80  36  20 MISG      29.84F
ALTURAS        SUNNY     82  33  17 S22G36    29.89F
$$
CAZ011-012-071-172100-
SIERRA NEVADA MTNS

CITY           SKY/WX    TMP DP  RH WIND       PRES   REMARKS
BLUE CANYON    SUNNY     74  31  20 S18G28    30.04F
TAHOE VLY ARPT SUNNY     78  32  18 SW15G24   30.06F
MAMMOTH LAKES  CLOUDY    77  36  22 SW10G25   30.14F
$$



USA.gov is the U.S. government's official web portal to all federal, state and local government web resources and services.